Location: Agus-us
(14.2247°N, 120.8593°E)
Time: 09:21:44
(UTC+00:00)

Cosmos 773 Rocket - Pass Details

Date: 13 December 2025
Orbit: 740 x 773 km, 74.1° (Epoch: 15 January)

Event Time Altitude Azimuth Distance (km) Brightness Sun altitude
Rises 21:44:55 0° 194° (SSW) 3,165 7.3 -6.9°
Reaches altitude 10° 21:47:16 10° 195° (SSW) 2,242 6.5 -6.4°
Maximum altitude 21:52:20 83° 283° (WNW) 747 3.9 -5.3°
Drops below altitude 10° 21:57:25 10° 11° (N) 2,246 6.3 -4.1°
Sets 21:59:47 0° 12° (NNE) 3,172 7.1 -3.6°
